Wrangell, AK

3:55 PM AKDT on September 21, 2017 (GMT -0800)
Wrangell

Weather History for PAWG - May, 2013

Change the Weather History Date:

Wednesday, May 1, 2013

  Actual Average Record
Temperature  
Mean Temperature 40 °F -  
Max Temperature 44 °F 53 °F 63 °F (1976)
Min Temperature 37 °F 38 °F 24 °F (1971)
Degree Days  
Heating Degree Days 24    
Moisture  
Dew Point 34 °F    
Average Humidity 78    
Maximum Humidity 87    
Minimum Humidity 70    
Precipitation  
Precipitation 0.57 in - - ()
Sea Level Pressure  
Sea Level Pressure 30.20 in    
Wind  
Wind Speed 17 mph (ESE)    
Max Wind Speed 24 mph    
Max Gust Speed 37 mph    
Visibility 8 miles    
Events      
Averages and records for this station are not official NWS values.
T = Trace of Precipitation, MM = Missing Value Source: NWS Daily Summary

Daily Weather History Graph

Daily Weather History Graph

Search for Another Location

Airport or City:

Trip Planner

Search our weather history database for the weather conditions in past years. The results will help you decide how hot, cold, wet, or windy it might be!

Date:

Astronomy

May. 01, 2013 Rise Set
Actual Time 5:02 AM AKDT 8:31 PM AKDT
Civil Twilight 4:17 AM AKDT 9:17 PM AKDT
Nautical Twilight 3:13 AM AKDT 10:21 PM AKDT
Astronomical Twilight 1:20 AM AKDT 12:33 AM AKDT
Moon 1:47 AM AKDT (5/1) 10:51 AM AKDT (5/1)
Length of Visible Light 17h 00m
Length of Day
15h 29m
Waning Gibbous, 57% of the Moon is Illuminated
May 1
Waning Gibbous
May 2
Last Quarter
May 9
New
May 17
First Quarter
May 24
Full

Hourly Weather History & Observations

Time (AKDT) Temp. Windchill Dew Point Humidity Pressure Visibility Wind Dir Wind Speed Gust Speed Precip Events Conditions
12:16 AM 39.2 °F 30.8 °F 30.2 °F 70% 30.35 in 10.0 mi ESE 15.0 mph 19.6 mph N/A   Overcast
12:36 AM 39.2 °F 31.6 °F 30.2 °F 70% 30.35 in 10.0 mi ESE 12.7 mph - N/A   Overcast
12:56 AM 39.2 °F 30.5 °F 30.2 °F 70% 30.34 in 10.0 mi ESE 16.1 mph - N/A   Overcast
1:16 AM 39.2 °F 30.5 °F 32.0 °F 75% 30.34 in 10.0 mi ESE 16.1 mph 20.7 mph N/A   Overcast
1:36 AM 39.2 °F 30.5 °F 32.0 °F 75% 30.34 in 10.0 mi ESE 16.1 mph 23.0 mph N/A   Overcast
1:56 AM 37.4 °F 28.9 °F 32.0 °F 81% 30.32 in 10.0 mi East 13.8 mph 17.3 mph N/A   Overcast
2:16 AM 37.4 °F 30.3 °F 32.0 °F 81% 30.32 in 10.0 mi ESE 10.4 mph - N/A   Overcast
2:36 AM 39.2 °F 31.2 °F 32.0 °F 75% 30.31 in 10.0 mi East 13.8 mph - N/A   Overcast
2:56 AM 39.2 °F 30.8 °F 32.0 °F 75% 30.30 in 10.0 mi ESE 15.0 mph 19.6 mph N/A   Overcast
3:16 AM 39.2 °F 31.6 °F 32.0 °F 75% 30.30 in 10.0 mi ESE 12.7 mph - N/A   Overcast
3:36 AM 37.4 °F 28.5 °F 30.2 °F 75% 30.29 in 10.0 mi ESE 15.0 mph - N/A   Overcast
3:56 AM 37.4 °F 27.8 °F 30.2 °F 75% 30.28 in 10.0 mi ESE 17.3 mph 21.9 mph N/A   Overcast
4:16 AM 37.4 °F 28.2 °F 30.2 °F 75% 30.28 in 9.0 mi ESE 16.1 mph 21.9 mph N/A   Overcast
4:36 AM 37.4 °F 27.8 °F 32.0 °F 81% 30.27 in 10.0 mi ESE 17.3 mph 21.9 mph 0.01 in   Overcast
4:56 AM 37.4 °F 27.8 °F 32.0 °F 81% 30.26 in 10.0 mi ESE 17.3 mph 21.9 mph 0.01 in   Overcast
5:16 AM 37.4 °F 27.5 °F 32.0 °F 81% 30.26 in 10.0 mi ESE 18.4 mph 25.3 mph 0.01 in   Overcast
5:36 AM 37.4 °F 27.2 °F 32.0 °F 81% 30.24 in 5.0 mi East 19.6 mph 27.6 mph 0.01 in   Overcast
5:56 AM 37.4 °F 27.8 °F 32.0 °F 81% 30.24 in 8.0 mi ESE 17.3 mph 25.3 mph 0.02 in   Overcast
6:16 AM 37.4 °F 27.5 °F 32.0 °F 81% 30.23 in 7.0 mi ESE 18.4 mph 25.3 mph 0.01 in   Overcast
6:36 AM 37.4 °F 27.5 °F 32.0 °F 81% 30.23 in 7.0 mi ESE 18.4 mph 23.0 mph 0.02 in   Overcast
6:56 AM 37.4 °F 27.2 °F 32.0 °F 81% 30.22 in 7.0 mi ESE 19.6 mph - 0.03 in   Overcast
7:16 AM 37.4 °F 27.5 °F 30.2 °F 75% 30.22 in 7.0 mi ESE 18.4 mph 24.2 mph 0.01 in   Overcast
7:36 AM 37.4 °F 28.2 °F 30.2 °F 75% 30.22 in 7.0 mi ESE 16.1 mph 23.0 mph 0.02 in   Overcast
7:56 AM 37.4 °F 28.9 °F 32.0 °F 81% 30.22 in 7.0 mi SE 13.8 mph 20.7 mph 0.04 in   Overcast
8:16 AM 37.4 °F 27.8 °F 30.2 °F 75% 30.21 in 7.0 mi SE 17.3 mph 25.3 mph 0.01 in   Overcast
8:36 AM 37.4 °F 27.5 °F 30.2 °F 75% 30.21 in 7.0 mi ESE 18.4 mph 23.0 mph 0.03 in   Overcast
8:56 AM 37.4 °F 26.9 °F 32.0 °F 81% 30.19 in 7.0 mi ESE 20.7 mph 27.6 mph 0.05 in   Overcast
9:16 AM 37.4 °F 27.2 °F 32.0 °F 81% 30.19 in 7.0 mi ESE 19.6 mph 28.8 mph 0.02 in   Overcast
9:36 AM 37.4 °F 27.8 °F 32.0 °F 81% 30.18 in 7.0 mi ESE 17.3 mph 26.5 mph 0.04 in   Overcast
9:56 AM 37.4 °F 28.5 °F 33.8 °F 87% 30.18 in 7.0 mi ESE 15.0 mph 21.9 mph 0.06 in   Overcast
10:16 AM 37.4 °F 26.9 °F 32.0 °F 81% 30.18 in 7.0 mi ESE 20.7 mph 25.3 mph 0.02 in   Overcast
10:36 AM 37.4 °F 27.5 °F 30.2 °F 75% 30.17 in 7.0 mi ESE 18.4 mph 25.3 mph 0.04 in   Overcast
10:56 AM 37.4 °F 26.9 °F 32.0 °F 81% 30.17 in 7.0 mi ESE 20.7 mph - 0.07 in   Overcast
11:16 AM 37.4 °F 27.2 °F 30.2 °F 75% 30.17 in 7.0 mi SE 19.6 mph 26.5 mph 0.02 in   Overcast
11:36 AM 37.4 °F 26.9 °F 32.0 °F 81% 30.15 in 7.0 mi ESE 20.7 mph 27.6 mph 0.04 in   Overcast
11:56 AM 39.2 °F 29.0 °F 32.0 °F 75% 30.15 in 7.0 mi ESE 21.9 mph 28.8 mph 0.06 in   Overcast
12:16 PM 39.2 °F 29.8 °F 32.0 °F 75% 30.15 in 7.0 mi SE 18.4 mph 25.3 mph 0.01 in   Overcast
12:36 PM 39.2 °F 29.6 °F 33.8 °F 81% 30.15 in 7.0 mi ESE 19.6 mph 26.5 mph 0.03 in   Overcast
12:56 PM 39.2 °F 29.6 °F 33.8 °F 81% 30.14 in 7.0 mi ESE 19.6 mph 27.6 mph 0.04 in   Overcast
1:16 PM 39.2 °F 29.0 °F 33.8 °F 81% 30.12 in 7.0 mi ESE 21.9 mph 36.8 mph 0.01 in   Overcast
1:36 PM 41.0 °F 31.1 °F 33.8 °F 76% 30.12 in 7.0 mi ESE 23.0 mph 36.8 mph 0.01 in   Overcast
1:56 PM 41.0 °F 31.1 °F 35.6 °F 81% 30.11 in 10.0 mi East 23.0 mph 34.5 mph 0.02 in   Overcast
2:16 PM 41.0 °F 31.9 °F 35.6 °F 81% 30.12 in 10.0 mi ESE 19.6 mph 32.2 mph N/A   Overcast
2:36 PM 41.0 °F 32.5 °F 33.8 °F 76% 30.13 in 10.0 mi ESE 17.3 mph 29.9 mph 0.01 in   Overcast
2:56 PM 41.0 °F 30.9 °F 35.6 °F 81% 30.13 in 10.0 mi ESE 24.2 mph 32.2 mph 0.01 in   Overcast
3:16 PM 41.0 °F 31.6 °F 35.6 °F 81% 30.13 in 7.0 mi East 20.7 mph 28.8 mph 0.01 in   Overcast
3:36 PM 41.0 °F 32.2 °F 35.6 °F 81% 30.15 in 7.0 mi East 18.4 mph 28.8 mph 0.02 in   Overcast
3:56 PM 41.0 °F 32.2 °F 35.6 °F 81% 30.15 in 7.0 mi East 18.4 mph 27.6 mph 0.06 in   Overcast
4:16 PM 41.0 °F 31.6 °F 35.6 °F 81% 30.15 in 7.0 mi East 20.7 mph 28.8 mph 0.02 in   Overcast
4:36 PM 41.0 °F 31.9 °F 35.6 °F 81% 30.15 in 7.0 mi ESE 19.6 mph 28.8 mph 0.04 in   Overcast
4:56 PM 41.0 °F 31.4 °F 35.6 °F 81% 30.16 in 7.0 mi East 21.9 mph 29.9 mph 0.04 in   Overcast
5:16 PM 41.0 °F 31.4 °F 35.6 °F 81% 30.16 in 7.0 mi ESE 21.9 mph 29.9 mph 0.01 in   Overcast
5:36 PM 41.0 °F 31.6 °F 35.6 °F 81% 30.16 in 7.0 mi ESE 20.7 mph 27.6 mph 0.01 in   Overcast
5:56 PM 41.0 °F 31.9 °F 35.6 °F 81% 30.16 in 7.0 mi ESE 19.6 mph 31.1 mph 0.02 in   Overcast
6:16 PM 42.8 °F 34.3 °F 35.6 °F 76% 30.16 in 7.0 mi ESE 19.6 mph 25.3 mph N/A   Overcast
6:36 PM 42.8 °F 34.8 °F 35.6 °F 76% 30.16 in 7.0 mi ESE 17.3 mph 28.8 mph 0.02 in   Overcast
6:56 PM 42.8 °F 34.3 °F 35.6 °F 76% 30.16 in 7.0 mi ESE 19.6 mph 32.2 mph 0.02 in   Overcast
7:16 PM 42.8 °F 33.5 °F 35.6 °F 76% 30.16 in 10.0 mi ESE 23.0 mph 29.9 mph N/A   Overcast
7:36 PM 42.8 °F 34.8 °F 35.6 °F 76% 30.17 in 10.0 mi ESE 17.3 mph 28.8 mph N/A   Overcast
7:56 PM 42.8 °F 34.3 °F 35.6 °F 76% 30.16 in 10.0 mi ESE 19.6 mph 32.2 mph N/A   Overcast
8:16 PM 42.8 °F 33.8 °F 35.6 °F 76% 30.16 in 10.0 mi ESE 21.9 mph 28.8 mph N/A   Overcast
8:36 PM 42.8 °F 34.3 °F 35.6 °F 76% 30.17 in 10.0 mi ESE 19.6 mph 27.6 mph N/A   Overcast
8:56 PM 42.8 °F 34.3 °F 35.6 °F 76% 30.16 in 10.0 mi East 19.6 mph 29.9 mph N/A   Overcast
9:16 PM 42.8 °F 34.5 °F 35.6 °F 76% 30.17 in 10.0 mi ESE 18.4 mph 29.9 mph N/A   Overcast
9:36 PM 42.8 °F 34.8 °F 37.4 °F 81% 30.18 in 10.0 mi East 17.3 mph 25.3 mph N/A   Overcast
9:56 PM 42.8 °F 34.3 °F 35.6 °F 76% 30.17 in 10.0 mi ESE 19.6 mph 28.8 mph N/A   Overcast
10:16 PM 42.8 °F 34.0 °F 37.4 °F 81% 30.17 in 10.0 mi East 20.7 mph 28.8 mph N/A   Overcast
10:36 PM 42.8 °F 34.3 °F 35.6 °F 76% 30.18 in 10.0 mi ESE 19.6 mph - N/A   Overcast
10:56 PM 42.8 °F 34.8 °F 37.4 °F 81% 30.18 in 10.0 mi East 17.3 mph 23.0 mph 0.02 in   Overcast
11:16 PM 42.8 °F 34.3 °F 37.4 °F 81% 30.18 in 10.0 mi East 19.6 mph 26.5 mph N/A   Overcast
11:36 PM 44.6 °F 37.4 °F 37.4 °F 76% 30.19 in 10.0 mi East 16.1 mph 21.9 mph N/A   Overcast
11:56 PM 42.8 °F 35.1 °F 37.4 °F 81% 30.19 in 10.0 mi East 16.1 mph 24.2 mph N/A   Overcast